COSMOS 2499 DEB

Satellite information

Favourite Embed

Satellite Type and Status

DEBRISIN ORBIT

Key statistics

Satellite COSMOS 2499 DEB at a glance.

Uptime

4174

Days in orbit

Revolutions

≈ 13.2

Per day

Orbit

LEO

Low Earth Orbit

Inclination

82.3

Latest

Satellite identification and parameters

Extended collection of information and parameters for COSMOS 2499 DEB.

Object identification

Identified? True

Debris? True

Object name: COSMOS 2499 DEB

International designator: 2014-028AZ

Object number (NORAD): 56566

Object ID (CCSDS): 56566

Country: COMMONWEALTH OF INDEPENDENT STATES (CIS)

Current information (Y/N): Y

RCS size: SMALL

Orbital parameters

Period: 108.904 minutes

Inclination: 82.2527 deg

SMA: 7554.201 km

Apoapsis: 1364.012 km

Periapsis: 988.121 km

RAAN: 0.4712 deg

Eccentricy: 0.0248796

Argument of periapsis: 90.1372 deg

Mean anomaly: 272.8261 deg

Mean motion: 13.22269409 rev/day

Mean motion (dot): -0.00002962 rev/day2

B* drag term: -0.0060842 1/REarth

Two-line elements (TLE)

Creation date: Oct. 17, 2025, 7:06 a.m.

Reference frame: TEME

Reference center: EARTH

Epoch: Oct. 16, 2025, 10:32 a.m. UTC

TLE line 0: 0 COSMOS 2499 DEB

TLE line 1: 1 56566U 14028AZ 25289.43947306 -.00002962 00000-0 -60842-2 0 9998

TLE line 2: 2 56566 82.2527 0.4712 0248796 90.1372 272.8261 13.22269409 65612

Live tracking on map

Real-time ground track for satellite COSMOS 2499 DEB.

In-orbit conjunctions

A list of the most updated potential collisions computed for object COSMOS 2499 DEB.

Target Orbit TCA Probability of collision Miss distance Type
COSMOS 1000 LEO 2025-07-25 11:11:55 0.0003280728 187.0 (m) PAYLOAD

Associated space launch

Classified payload for Russia

COSMOS 2499 DEB was lifted into orbit during the mission ‘Rokot / Briz-KM | 3x Strela-3M (Kosmos 2496, Kosmos 2497, Kosmos 2498) & Kosmos 2499’, on board a Rokot/Briz-KM space rocket.

The launch took place on May 23, 2014, 5:27 a.m. from 133/3 (133L).

For more information about the launch, click the button.

Launch to space Rokot / Briz-KM | 3x Strela-3M (Kosmos 2496, Kosmos 2497, Kosmos 2498) & Kosmos 2499
Rokot / Briz-KM | 3x Strela-3M (Kosmos 2496, Kosmos 2497, Kosmos 2498) & Kosmos 2499

Agency: N/A

Status: Launch Successful

Launch date: May 23, 2014, 5:27 a.m. UTC

Rocket: Rokot/Briz-KM

Launch pad: 133/3 (133L)

Location: Plesetsk Cosmodrome, Russian Federation

...

Latest news about this satellite

There are no fresh news available about this satellite. Check back as we update our databases every day.


Newsletter sign-up

Weekly statistics, charts and insights to help you stay on top of the space industry.